Tracking 25612 objects as of 20-May-2022
HD Live streaming from Space Station
objects crossing your sky now

BREEZE-M DEB (TANK)

Track BREEZE-M DEB (TANK) now!
10-day predictions


NORAD ID: 44627
Int'l Code: 2019-067D
Perigee: 355.1 km
Apogee: 19,273.4 km
Inclination: 50.5 °
Period: 341.5 minutes
Semi major axis: 16185 km
RCS: Unknown
Launch date: October 9, 2019
Source: Commonwealth of Independent States (former USSR) (CIS)
Launch site: TYURATAM MISSILE AND SPACE COMPLEX (TTMTR)

Note: This is SATELLITE DEBRIS
aabbcc
Your satellite tracking list
Your tracking list is empty




NASA's NSSDC Master Catalog

Two Line Element Set (TLE):
1 44627U 19067D   22138.89551400  .00001002  00000-0  56279-3 0  9999
2 44627  50.4670   3.6450 5844301 247.3484  42.7462  4.21621950 40067
Source of the keplerian elements: AFSPC